sat.trackr.live / text

‹ back to catalog

STARLINK-3306

NORAD 50163 · 2021-125H

PAYLOAD ACTIVE UNKNOWN

§ Identity

Operator
Country
US
Launch date
2021-12-18
Launch site
AFWTR
Launch vehicle
Mass (kg)
RCS (m²)

Purposes: comms

External: N2YO · Heavens-Above · Gunter

§ Orbital elements

Epoch: 2026-09-12T02:25:33.305952Z

Period
90.90 min
Inclination
53.2094°
Eccentricity
0.0003196
Mean motion
15.84131463 rev/d
Perigee alt
316.6 km
Apogee alt
320.9 km
Semi-major
6,696.9 km
B*
5.8300e-4
RAAN
80.4162°
Arg perigee
230.0219°
Mean anomaly
130.0525°
Rev number
26,546

§ Raw data

STARLINK-33061 50163U 21125H   26255.10107993  .00135437  00000+0  58300-3 0  99972 50163  53.2094  80.4162 0003196 230.0219 130.0525 15.84131463265462

JSON: /api/v1/satellites/50163 · /tle

For live sub-satellite position, see the globe view (requires WebGL).

§ Visibility from observer

Set your observer location to see the next 7 days of passes ≥ 10°. The values pass through the URL so the page stays shareable.

No JS? Fill the form by hand. The geolocation button needs JavaScript.